Schneifelwetter: Wetterstation Hallschlag, 537 m . NN
Wetterdaten: Donnerstag, 02.06.2011
Datum Zeit Temp. A. Feuchte A. Luftdruck Regen Wind Richtung Richtung Sonnenschein Helligkeit T Regen Taupunkt Windchill
02.06.2011 00:01 7,9 C 70 % 1028 hPa 0,0 l/m 4,1 km/h (1 Bft) N-NO 20 0 min 0 lux 0,00 min 2,8 C 7,9 C
02.06.2011 00:16 7,5 C 70 % 1028 hPa 0,0 l/m 0,4 km/h (0 Bft) N-NO 20 0 min 0 lux 0,00 min 2,4 C 7,5 C
02.06.2011 00:31 7,1 C 73 % 1028 hPa 0,0 l/m 7,9 km/h (2 Bft) N-NO 20 0 min 0 lux 0,00 min 2,6 C 5,9 C
02.06.2011 00:46 7,2 C 72 % 1028 hPa 0,0 l/m 7,7 km/h (2 Bft) N-NO 20 0 min 0 lux 0,00 min 2,5 C 6,1 C
02.06.2011 01:01 7,2 C 74 % 1028 hPa 0,0 l/m 13,6 km/h (3 Bft) N-NO 20 0 min 0 lux 0,00 min 2,9 C 2,4 C
02.06.2011 01:16 7,2 C 74 % 1028 hPa 0,0 l/m 8,6 km/h (2 Bft) N-NO 20 0 min 0 lux 0,00 min 2,9 C 5,5 C
02.06.2011 01:31 7,9 C 74 % 1028 hPa 0,0 l/m 11,6 km/h (2 Bft) NO 45 0 min 0 lux 0,00 min 3,6 C 4,3 C
02.06.2011 01:46 8,3 C 73 % 1028 hPa 0,0 l/m 17,9 km/h (3 Bft) NO45 40 0 min 0 lux 0,00 min 3,8 C 1,9 C
02.06.2011 02:01 8,2 C 73 % 1028 hPa 0,0 l/m 10,4 km/h (2 Bft) NO 45 0 min 0 lux 0,00 min 3,7 C 5,4 C
02.06.2011 02:16 8,3 C 73 % 1028 hPa 0,0 l/m 12,3 km/h (3 Bft) NO 45 0 min 0 lux 0,00 min 3,8 C 4,4 C
02.06.2011 02:31 8,5 C 73 % 1028 hPa 0,0 l/m 14,6 km/h (3 Bft) N-NO67.5 20 0 min 0 lux 0,00 min 3,9 C 3,5 C
02.06.2011 02:46 9,0 C 71 % 1028 hPa 0,0 l/m 22,8 km/h (4 Bft) N-NO22.5 25 0 min 0 lux 0,00 min 4,0 C 1,1 C
02.06.2011 03:01 8,9 C 71 % 1028 hPa 0,0 l/m 16,6 km/h (3 Bft) N-NO67.5 25 0 min 0 lux 0,00 min 3,9 C 3,1 C
02.06.2011 03:16 8,8 C 71 % 1028 hPa 0,0 l/m 14,0 km/h (3 Bft) N-NO 30 0 min 0 lux 0,00 min 3,8 C 4,1 C
02.06.2011 03:31 8,2 C 72 % 1028 hPa 0,0 l/m 6,7 km/h (2 Bft) NO 45 0 min 0 lux 0,00 min 3,5 C 8,0 C
02.06.2011 03:46 7,3 C 73 % 1028 hPa 0,0 l/m 0,1 km/h (0 Bft) NO 45 0 min 0 lux 0,00 min 2,8 C 7,3 C
02.06.2011 04:01 7,0 C 75 % 1028 hPa 0,0 l/m 0,0 km/h (0 Bft) NO 45 0 min 0 lux 0,00 min 2,9 C 7,0 C
02.06.2011 04:16 6,9 C 76 % 1028 hPa 0,0 l/m 3,3 km/h (1 Bft) NO22.5 35 0 min 0 lux 0,00 min 3,0 C 6,9 C
02.06.2011 04:31 6,8 C 76 % 1028 hPa 0,0 l/m 6,3 km/h (2 Bft) O-NO45 70 0 min 0 lux 0,00 min 2,9 C 6,8 C
02.06.2011 04:46 6,8 C 76 % 1028 hPa 0,0 l/m 8,7 km/h (2 Bft) O-NO22.5 60 0 min 0 lux 0,00 min 2,9 C 5,0 C
02.06.2011 05:01 6,4 C 77 % 1028 hPa 0,0 l/m 0,0 km/h (0 Bft) NO 50 0 min 0 lux 0,00 min 2,7 C 6,4 C
02.06.2011 05:15 6,6 C 77 % 1028 hPa 0,0 l/m 2,3 km/h (1 Bft) NO 50 0 min 142 lux 0,00 min 2,9 C 6,6 C
02.06.2011 05:30 6,6 C 79 % 1028 hPa 0,0 l/m 0,0 km/h (0 Bft) NO 50 0 min 597 lux 0,00 min 3,2 C 6,6 C
02.06.2011 05:45 7,5 C 78 % 1028 hPa 0,0 l/m 15,1 km/h (3 Bft) NO22.5 45 0 min 2,14 klux 0,00 min 3,9 C 2,1 C
02.06.2011 06:00 8,4 C 74 % 1028 hPa 0,0 l/m 22,5 km/h (4 Bft) NO45 40 0 min 5,39 klux 0,00 min 4,0 C 0,4 C
02.06.2011 06:15 8,7 C 73 % 1028 hPa 0,0 l/m 21,3 km/h (4 Bft) NO45 45 0 min 9,5 klux 0,00 min 4,1 C 1,2 C
02.06.2011 06:30 8,8 C 73 % 1028 hPa 0,0 l/m 25,4 km/h (4 Bft) NO45 45 0 min 14,0 klux 0,00 min 4,2 C 0,1 C
02.06.2011 06:45 9,0 C 72 % 1028 hPa 0,0 l/m 22,8 km/h (4 Bft) NO45 40 0 min 17,6 klux 0,00 min 4,2 C 1,1 C
02.06.2011 07:00 9,2 C 72 % 1028 hPa 0,0 l/m 23,5 km/h (4 Bft) N-NO67.5 30 0 min 21,6 klux 0,00 min 4,4 C 1,2 C
02.06.2011 07:15 10,0 C 70 % 1028 hPa 0,0 l/m 17,8 km/h (3 Bft) NO45 35 0 min 25,5 klux 0,00 min 4,8 C 4,0 C
02.06.2011 07:30 10,4 C 70 % 1028 hPa 0,0 l/m 17,3 km/h (3 Bft) NO22.5 45 0 min 30,8 klux 0,00 min 5,2 C 4,7 C
02.06.2011 07:45 10,6 C 68 % 1028 hPa 0,0 l/m 22,6 km/h (4 Bft) N-NO22.5 30 0 min 33,2 klux 0,00 min 4,9 C 3,3 C
02.06.2011 08:00 11,1 C 67 % 1028 hPa 0,0 l/m 23,0 km/h (4 Bft) N-NO22.5 30 0 min 37,2 klux 0,00 min 5,2 C 3,8 C
02.06.2011 08:15 12,4 C 61 % 1028 hPa 0,0 l/m 28,0 km/h (4 Bft) NO45 45 0 min 40,8 klux 0,00 min 5,1 C 4,4 C
02.06.2011 08:30 13,0 C 58 % 1028 hPa 0,0 l/m 32,0 km/h (5 Bft) NO45 55 0 min 44,1 klux 0,00 min 4,9 C 4,5 C
02.06.2011 08:46 13,5 C 57 % 1029 hPa 0,0 l/m 27,8 km/h (4 Bft) O-NO67.5 70 0 min 47,5 klux 0,00 min 5,2 C 6,0 C
02.06.2011 09:01 14,0 C 54 % 1029 hPa 0,0 l/m 29,4 km/h (5 Bft) O-NO45 60 0 min 51,0 klux 0,00 min 4,8 C 6,4 C
02.06.2011 09:16 14,5 C 56 % 1029 hPa 0,0 l/m 29,1 km/h (5 Bft) NO45 55 15 min 54,6 klux 0,00 min 5,8 C 7,1 C
02.06.2011 09:31 14,9 C 54 % 1029 hPa 0,0 l/m 27,8 km/h (4 Bft) NO45 55 15 min 57,7 klux 0,00 min 5,7 C 7,9 C
02.06.2011 09:46 15,2 C 52 % 1029 hPa 0,0 l/m 27,5 km/h (4 Bft) O-NO45 70 15 min 60,6 klux 0,00 min 5,4 C 8,4 C
02.06.2011 10:01 15,5 C 52 % 1029 hPa 0,0 l/m 31,1 km/h (5 Bft) NO67.5 55 15 min 63,9 klux 0,00 min 5,7 C 8,2 C
02.06.2011 10:16 16,0 C 51 % 1029 hPa 0,0 l/m 28,8 km/h (4 Bft) O-NO67.5 60 15 min 66,5 klux 0,00 min 5,9 C 9,3 C
02.06.2011 10:31 16,5 C 47 % 1029 hPa 0,0 l/m 35,1 km/h (5 Bft) NO45 55 15 min 69,7 klux 0,00 min 5,2 C 9,1 C
02.06.2011 10:46 16,7 C 46 % 1029 hPa 0,0 l/m 35,1 km/h (5 Bft) O-NO67.5 65 15 min 72,4 klux 0,00 min 5,0 C 9,4 C
02.06.2011 11:01 16,8 C 45 % 1029 hPa 0,0 l/m 32,4 km/h (5 Bft) O-NO67.5 70 15 min 75,1 klux 0,00 min 4,8 C 9,9 C
02.06.2011 11:16 17,6 C 46 % 1029 hPa 0,0 l/m 30,5 km/h (5 Bft) O-NO67.5 75 15 min 76,9 klux 0,00 min 5,8 C 11,3 C
02.06.2011 11:31 18,2 C 44 % 1029 hPa 0,0 l/m 27,4 km/h (4 Bft) NO45 45 15 min 79,3 klux 0,00 min 5,7 C 12,6 C
02.06.2011 11:46 18,3 C 44 % 1029 hPa 0,0 l/m 24,6 km/h (4 Bft) O-NO45 60 15 min 81,2 klux 0,00 min 5,8 C 13,1 C
02.06.2011 12:01 18,1 C 46 % 1029 hPa 0,0 l/m 27,4 km/h (4 Bft) O-NO45 65 15 min 82,5 klux 0,00 min 6,3 C 12,4 C
02.06.2011 12:15 17,2 C 46 % 1029 hPa 0,0 l/m 31,5 km/h (5 Bft) NO22.5 35 14 min 83,8 klux 0,00 min 5,5 C 10,6 C
02.06.2011 12:31 17,3 C 46 % 1029 hPa 0,0 l/m 31,1 km/h (5 Bft) NO67.5 55 16 min 85,7 klux 0,00 min 5,6 C 10,8 C
02.06.2011 12:46 17,5 C 47 % 1029 hPa 0,0 l/m 29,0 km/h (5 Bft) O-NO45 75 15 min 87,1 klux 0,00 min 6,1 C 11,3 C
02.06.2011 13:01 17,3 C 46 % 1029 hPa 0,0 l/m 34,6 km/h (5 Bft) NO22.5 40 15 min 87,5 klux 0,00 min 5,6 C 10,3 C
02.06.2011 13:16 17,6 C 45 % 1029 hPa 0,0 l/m 32,0 km/h (5 Bft) N-NO22.5 25 15 min 87,8 klux 0,00 min 5,5 C 11,1 C
02.06.2011 13:31 17,7 C 44 % 1029 hPa 0,0 l/m 31,8 km/h (5 Bft) N-NO22.5 30 15 min 88,3 klux 0,00 min 5,3 C 11,2 C
02.06.2011 13:45 17,7 C 43 % 1028 hPa 0,0 l/m 37,5 km/h (5 Bft) NO45 40 14 min 88,7 klux 0,00 min 5,0 C 10,6 C
02.06.2011 14:01 18,0 C 41 % 1028 hPa 0,0 l/m 33,1 km/h (5 Bft) NO67.5 50 16 min 88,3 klux 0,00 min 4,6 C 11,5 C
02.06.2011 14:16 18,1 C 43 % 1028 hPa 0,0 l/m 24,8 km/h (4 Bft) N-NO45 30 15 min 87,7 klux 0,00 min 5,3 C 12,8 C
02.06.2011 14:31 18,2 C 42 % 1028 hPa 0,0 l/m 29,5 km/h (5 Bft) O-NO45 60 15 min 86,9 klux 0,00 min 5,1 C 12,3 C
02.06.2011 14:46 18,3 C 43 % 1028 hPa 0,0 l/m 28,1 km/h (4 Bft) NO22.5 45 15 min 86,0 klux 0,00 min 5,5 C 12,6 C
02.06.2011 15:01 18,6 C 40 % 1028 hPa 0,0 l/m 32,1 km/h (5 Bft) N-NO45 30 15 min 84,8 klux 0,00 min 4,7 C 12,5 C
02.06.2011 15:15 18,6 C 41 % 1028 hPa 0,0 l/m 40,4 km/h (6 Bft) N-NO22.5 15 14 min 83,5 klux 0,00 min 5,1 C 11,6 C
02.06.2011 15:31 18,9 C 38 % 1028 hPa 0,0 l/m 32,5 km/h (5 Bft) NO45 40 16 min 81,1 klux 0,00 min 4,3 C 12,9 C
02.06.2011 15:46 18,9 C 40 % 1028 hPa 0,0 l/m 45,6 km/h (6 Bft) N-NO45 25 15 min 80,2 klux 0,00 min 5,0 C 11,6 C
02.06.2011 16:01 19,2 C 38 % 1028 hPa 0,0 l/m 25,8 km/h (4 Bft) N-NO22.5 25 15 min 77,6 klux 0,00 min 4,5 C 14,2 C
02.06.2011 16:16 19,2 C 36 % 1028 hPa 0,0 l/m 28,3 km/h (4 Bft) N-NO22.5 30 15 min 74,6 klux 0,00 min 3,8 C 13,8 C
02.06.2011 16:31 19,5 C 37 % 1028 hPa 0,0 l/m 32,5 km/h (5 Bft) NO45 45 15 min 72,2 klux 0,00 min 4,4 C 13,7 C
02.06.2011 16:46 19,5 C 36 % 1028 hPa 0,0 l/m 36,4 km/h (5 Bft) NO67.5 35 15 min 70,2 klux 0,00 min 4,0 C 13,3 C
02.06.2011 17:00 19,4 C 36 % 1027 hPa 0,0 l/m 37,3 km/h (5 Bft) N-NO22.5 30 14 min 67,6 klux 0,00 min 3,9 C 13,1 C
02.06.2011 17:01 19,4 C 36 % 1027 hPa 0,0 l/m 37,3 km/h (5 Bft) N-NO22.5 30 1 min 67,6 klux 0,00 min 3,9 C 13,1 C
02.06.2011 17:16 19,7 C 37 % 1028 hPa 0,0 l/m 35,8 km/h (5 Bft) NO67.5 35 15 min 64,3 klux 0,00 min 4,6 C 13,7 C
02.06.2011 17:31 19,8 C 35 % 1028 hPa 0,0 l/m 32,1 km/h (5 Bft) N-NO45 30 15 min 61,1 klux 0,00 min 3,9 C 14,2 C
02.06.2011 17:46 19,8 C 36 % 1028 hPa 0,0 l/m 31,5 km/h (5 Bft) N-NO22.5 30 15 min 58,2 klux 0,00 min 4,3 C 14,3 C
02.06.2011 18:01 19,5 C 36 % 1027 hPa 0,0 l/m 32,9 km/h (5 Bft) N-NO22.5 15 15 min 54,2 klux 0,00 min 4,0 C 13,7 C
02.06.2011 18:15 19,4 C 37 % 1027 hPa 0,0 l/m 35,6 km/h (5 Bft) N-NO22.5 25 0 min 50,8 klux 0,00 min 4,3 C 13,2 C
02.06.2011 18:31 19,2 C 38 % 1027 hPa 0,0 l/m 36,7 km/h (5 Bft) N-NO22.5 20 0 min 47,4 klux 0,00 min 4,5 C 12,8 C
02.06.2011 18:46 18,9 C 39 % 1027 hPa 0,0 l/m 31,0 km/h (5 Bft) N-NO45 25 0 min 44,1 klux 0,00 min 4,6 C 13,0 C
02.06.2011 19:01 18,8 C 40 % 1027 hPa 0,0 l/m 28,8 km/h (4 Bft) NO45 40 0 min 40,6 klux 0,00 min 4,9 C 13,2 C
02.06.2011 19:16 18,7 C 40 % 1027 hPa 0,0 l/m 31,7 km/h (5 Bft) N-NO22.5 25 0 min 37,4 klux 0,00 min 4,8 C 12,7 C
02.06.2011 19:31 18,7 C 39 % 1027 hPa 0,0 l/m 35,2 km/h (5 Bft) N-NO45 25 0 min 33,9 klux 0,00 min 4,5 C 12,3 C
02.06.2011 19:45 18,2 C 40 % 1027 hPa 0,0 l/m 33,1 km/h (5 Bft) N-NO67.5 30 0 min 30,5 klux 0,00 min 4,4 C 11,8 C
02.06.2011 20:01 17,7 C 41 % 1028 hPa 0,0 l/m 29,0 km/h (5 Bft) N-NO22.5 30 0 min 26,6 klux 0,00 min 4,3 C 11,6 C
02.06.2011 20:16 17,2 C 43 % 1027 hPa 0,0 l/m 34,6 km/h (5 Bft) N-NO22.5 20 0 min 23,4 klux 0,00 min 4,5 C 10,2 C
02.06.2011 20:31 16,8 C 44 % 1027 hPa 0,0 l/m 29,8 km/h (5 Bft) N-NO22.5 20 0 min 19,4 klux 0,00 min 4,5 C 10,2 C
02.06.2011 20:46 16,5 C 45 % 1028 hPa 0,0 l/m 33,4 km/h (5 Bft) N-NO22.5 25 0 min 15,3 klux 0,00 min 4,5 C 9,3 C
02.06.2011 21:01 16,0 C 46 % 1028 hPa 0,0 l/m 28,1 km/h (4 Bft) N-NO22.5 15 0 min 3,88 klux 0,00 min 4,4 C 9,4 C
02.06.2011 21:15 15,6 C 47 % 1028 hPa 0,0 l/m 28,8 km/h (4 Bft) N-NO45 30 0 min 2,93 klux 0,00 min 4,3 C 8,7 C
02.06.2011 21:31 15,2 C 48 % 1028 hPa 0,0 l/m 27,9 km/h (4 Bft) NO22.5 35 0 min 1,77 klux 0,00 min 4,3 C 8,3 C
02.06.2011 21:46 14,9 C 49 % 1028 hPa 0,0 l/m 28,2 km/h (4 Bft) NO45 35 0 min 545 lux 0,00 min 4,3 C 7,9 C
02.06.2011 22:01 14,4 C 51 % 1028 hPa 0,0 l/m 23,8 km/h (4 Bft) N-NO22.5 30 0 min 235 lux 0,00 min 4,4 C 8,1 C
02.06.2011 22:16 14,2 C 52 % 1028 hPa 0,0 l/m 28,0 km/h (4 Bft) N-NO45 30 0 min 52 lux 0,00 min 4,5 C 6,9 C
02.06.2011 22:31 13,9 C 52 % 1028 hPa 0,0 l/m 30,7 km/h (5 Bft) NO67.5 35 0 min 9 lux 0,00 min 4,2 C 6,0 C
02.06.2011 22:46 13,6 C 53 % 1028 hPa 0,0 l/m 28,8 km/h (4 Bft) NO22.5 35 0 min 0 lux 0,00 min 4,2 C 5,9 C
02.06.2011 23:00 13,4 C 55 % 1028 hPa 0,0 l/m 28,4 km/h (4 Bft) NO22.5 50 0 min 0 lux 0,00 min 4,5 C 5,7 C
02.06.2011 23:16 13,3 C 55 % 1028 hPa 0,0 l/m 30,7 km/h (5 Bft) NO45 45 0 min 0 lux 0,00 min 4,5 C 5,2 C
02.06.2011 23:31 13,2 C 54 % 1028 hPa 0,0 l/m 25,1 km/h (4 Bft) NO22.5 35 0 min 0 lux 0,00 min 4,1 C 6,1 C
02.06.2011 23:46 13,0 C 55 % 1028 hPa 0,0 l/m 28,8 km/h (4 Bft) NO45 40 0 min 0 lux 0,00 min 4,2 C 5,1 C
_ Min-Zeit 05:01 17:31 17:00 - 04:01 - - - - - 00:16 06:30
Minimum _ 6,4 C 35 % 1027 hPa - 0,0 km/h (0 Bft) - - - - - 2,4 C 0,1 C
_ Max-Zeit 17:31 05:30 08:46 00:01 15:46 - - 12:31 13:45 00:01 12:01 17:46
Maximum _ 19,8 C 79 % 1029 hPa 0,0 l/m 45,6 km/h
N-NO (6 Bft)
- - 16 min 88,7 klux 0,00 min 6,3 C 14,3 C
Durchschnitt _ 14,0 C 55 % 1028 hPa #0,0 l/m 24,7 km/h (4 Bft) NO - #9:00 h 36,7 klux #0 min. 4,4 C 8,4 C